Showing default

PRAETORIAN SDA_605, 65568

Orbit data source: Space-Track

PRAETORIAN SDA_605, 65568 is a payload satellite owned by SDA (US) in LEO that was launched on Wed, 10 Sep 2025 UTC via an FALCON 9 launch vehicle from the Air Force Western Test Range (AFWTR). Payload-class satellites include a variety of spacecraft equipped with specific instruments for various scientific and technological missions. These include communications satellites like Starlink; space stations such as the ISS; scientific satellites like the Hubble; Earth observation satellites from companies like Planet Labs, Umbra, and HawkEye 360; GPS; miniature CubeSats for education and research; and military/defense satellites.

Loading next visibility...
Identifier
65568, 2025-203D
Orbit
LEO
Country
Flag of USUS
Related business
Manufacturer
York Space Sys
Mission
Operational Defense Communications
Bus & Motor
S-CLASS, Unknown motor
Mass
~300 kg wet, ~300 kg dry
Launch date (UTC)
2025-09-10 (9 months ago)
Launch vehicle
FALCON 9
Launch site
Air Force Western Test Range (AFWTR)
Object type
Payload
Rocket body
Debris
Shape & HBR
Box + 4 Pan, 14.5 m
Radar Cross Section
1.244 m², Large (>1 m²)

Expand to show TLE details & history
Last TLE update: 13 hours ago

TLE from 13 hours ago
0 PRAETORIAN SDA_605
1 65568U 25203D   26171.29021462  .00000043  00000-0  27955-4 0  9994
2 65568  81.3018   7.8898 0008250 174.5092 185.6157 13.83434437 39124
Epoch: 2026-06-20T06:57Z
TLE epoch observation values (Epoch: 2026-06-20T06:57:54.543Z)
Latitude
0.00007°
Longitude
-5.09441°
Altitude
960.614 km
Speed
7.368 km/s
True Right ascension
00h 31m 33s
True Declination
0° 00' 00"
Sunlit
Object was in daylight at epoch
Visualization orbit readout
Latitude
Unknown
Longitude
Unknown
Altitude
Unknown
Speed
Unknown
Apparent Right ascension
Unknown
Apparent Declination
Unknown
Sunlit
N/A
Visualization observer readout
Local Sidereal Time
07:13:32
Azimuth
Unknown
Elevation
Unknown
Doppler factor
Unknown
Orbital elements
Apogee altitude
954.982 km
Perigee altitude
942.893 km
Semi-major axis
7,327.075 km
Eccentricity
0.00083
Inclination
81.3018°
RAAN
7.8898°
Arg. of periapsis
174.5092°
True anomaly
185.60646°
Mean anomaly
185.6157°
Eccentric anomaly
185.61108°
Mean motion
3.46057 °/min
Orbital period
104.03 mins
BSTAR
0.000027955
Loading maneuver chart data...
Computing Atmospheric mass density...

Documentation

Showing up to 5 results
|